Wind_Speed
28 28 28 28 28 27 26 26 25 25 25 24 23 22 22 22 22 22 23 23 22 22 21 21 20 20 19 18 17 16 15 15 14 14 14 14 13 12 12 12 13 13 13 12 12 12 12 11 9 8 8 7 8 8 7 7 8 10 14 16 18 17 17 16 14 13 12 11 11 10 9 9 9 10 10 10 10 9 9 8 8 8 8 8 9
28 29 28 29 28 28 27 26 26 26 25 24 24 23 22 22 23 23 23 23 23 22 21 21 20 20 19 19 18 16 15 14 14 14 14 14 14 12 12 12 13 14 13 12 12 12 12 11 10 9 9 9 8 9 8 8 8 10 13 16 18 18 17 17 15 14 12 11 11 10 10 9 9 10 11 10 10 10 9 8 8 8 8 8 8
27 28 28 29 28 28 27 26 26 26 25 25 24 23 23 23 24 24 24 24 23 22 21 21 20 20 19 19 18 17 16 15 14 14 14 14 14 13 12 13 14 14 14 13 13 13 12 12 10 10 10 10 10 10 9 9 9 10 13 15 17 18 19 18 16 14 13 12 11 11 10 10 10 10 11 10 10 10 9 8 8 8 8 8 8
26 27 27 27 27 27 26 26 25 26 25 24 24 24 24 24 25 25 25 24 23 22 21 21 20 20 19 19 18 17 16 15 15 14 14 14 15 14 13 13 14 15 15 14 14 13 13 12 11 10 10 10 11 11 10 9 9 10 13 16 18 19 19 18 17 15 14 13 12 12 11 10 10 10 11 10 10 10 10 9 8 8 8 8 8
26 27 27 27 26 26 25 25 25 25 25 25 25 24 25 25 25 26 25 24 23 23 22 21 20 20 19 19 18 18 17 16 15 15 14 14 14 15 14 13 14 15 15 15 15 14 13 13 12 11 10 11 11 12 12 11 10 10 13 16 19 19 19 18 17 16 14 14 13 12 11 11 11 10 11 11 10 10 10 10 9 9 9 8 8
26 27 27 27 26 26 25 24 24 23 23 24 25 25 25 26 26 26 26 25 24 23 23 22 21 20 19 19 18 18 17 17 16 15 15 14 14 15 15 14 14 16 16 15 15 15 15 14 13 12 11 11 11 12 13 12 11 11 13 16 18 19 19 19 18 17 15 14 13 13 12 12 11 11 11 11 11 11 11 10 9 9 9 9 8
27 27 27 26 26 25 24 23 22 22 22 23 24 25 25 26 27 27 26 25 25 24 23 22 21 20 20 19 19 18 17 17 16 15 15 15 15 15 15 15 15 16 16 16 16 16 15 15 14 13 11 11 11 12 13 13 12 12 13 15 17 18 19 19 19 17 16 15 14 13 13 12 12 11 11 11 12 12 11 11 10 10 10 9 8
28 27 26 26 26 25 23 23 22 23 23 23 24 25 26 26 27 27 27 26 26 24 23 22 21 21 20 20 19 18 17 17 16 16 16 15 15 15 15 15 15 15 16 16 16 16 16 16 15 14 13 12 12 12 13 14 14 13 14 15 17 18 19 20 19 18 17 16 14 14 13 13 12 12 12 12 12 12 12 12 11 10 10 10 9
30 28 27 26 26 25 24 24 23 24 24 24 25 25 26 26 27 27 27 27 26 24 23 22 22 21 21 20 20 18 17 17 16 17 16 16 15 15 15 15 16 15 16 16 17 17 17 16 16 16 14 14 13 12 13 15 15 14 13 14 17 19 19 20 20 19 18 16 15 15 14 14 13 13 13 13 13 12 13 12 12 11 11 10 10
31 29 28 27 26 26 25 24 25 24 24 25 25 25 26 26 26 27 27 27 27 24 23 22 22 21 21 20 20 18 17 17 16 16 16 16 15 15 16 16 16 16 16 15 16 16 17 17 17 17 16 15 13 13 14 15 16 15 13 14 16 19 20 20 20 20 18 16 16 15 15 14 13 13 13 13 13 13 13 13 12 12 11 11 10
30 29 27 27 26 25 25 24 25 25 25 25 25 25 25 25 26 26 27 27 26 24 23 23 22 22 21 21 20 18 17 17 16 16 16 17 16 15 16 17 17 17 16 15 15 15 16 18 18 18 17 16 15 14 15 16 16 16 15 15 16 19 21 22 22 21 19 17 16 15 15 15 14 14 14 13 13 13 13 13 13 12 12 11 11
29 27 27 27 27 26 25 25 25 26 25 25 24 25 25 25 26 26 26 26 25 24 23 23 22 22 21 21 19 18 17 17 16 16 16 17 17 16 15 16 17 17 17 17 16 14 14 16 18 19 18 17 16 16 17 17 17 17 16 16 16 19 22 23 23 22 20 20 18 16 17 16 16 15 14 14 13 14 13 13 13 13 12 12 11
29 27 27 27 27 26 25 25 25 26 25 24 24 24 24 24 25 25 25 25 24 23 22 22 22 21 21 21 19 19 18 17 16 16 16 17 17 17 15 15 15 15 16 16 17 17 16 16 17 19 20 19 17 17 18 18 18 19 18 17 16 18 22 23 23 22 21 21 18 18 18 17 17 16 15 14 14 14 14 14 13 13 13 12 12
29 29 29 28 27 26 26 25 25 25 24 24 24 24 23 23 23 23 23 23 22 22 21 21 21 21 21 21 20 19 18 17 17 16 16 17 18 17 16 15 14 14 14 15 17 18 18 18 17 18 21 21 19 18 19 20 20 20 20 18 17 18 21 23 24 22 22 22 19 19 19 18 18 16 16 15 15 15 14 14 14 14 13 13 12
28 28 28 28 28 27 27 26 25 24 24 24 24 24 23 22 21 22 22 21 21 21 21 21 21 20 21 21 21 20 19 18 17 16 17 17 18 18 17 16 15 15 15 15 16 16 17 18 19 19 20 21 21 20 20 21 21 21 21 20 18 18 21 23 24 23 22 21 20 22 21 19 19 17 16 16 15 15 15 14 14 14 14 13 13
28 27 26 26 28 28 27 26 25 24 24 24 24 23 22 21 20 21 21 20 20 21 21 22 21 20 20 21 21 20 19 18 17 17 17 18 18 18 18 17 16 16 16 16 16 16 16 17 18 19 20 21 21 21 20 21 22 22 22 21 20 19 21 23 25 24 24 23 22 22 21 20 20 18 17 16 16 16 16 15 14 14 14 14 14
31 29 27 27 27 27 27 26 25 24 24 24 23 22 21 20 20 20 20 20 21 21 22 22 21 20 21 21 21 21 20 19 18 17 17 18 18 19 19 18 17 18 17 17 17 17 16 15 17 18 20 21 21 21 20 21 23 24 23 22 21 20 20 23 25 25 26 26 23 22 21 21 20 19 18 18 17 16 16 16 15 15 15 15 15
34 32 29 28 26 24 23 23 23 24 24 24 22 21 21 20 19 19 20 21 22 22 22 22 22 21 21 21 21 21 21 20 19 18 18 18 18 19 19 19 19 19 18 18 18 18 17 16 17 18 19 21 22 21 20 21 23 25 25 24 22 21 20 22 25 26 28 27 24 23 23 22 21 20 20 19 18 17 17 17 16 16 16 16 15
35 34 31 28 26 23 22 22 22 22 23 23 22 21 21 20 19 21 22 22 23 23 23 22 22 22 21 21 21 22 22 20 19 18 18 18 18 19 20 20 20 20 20 19 19 18 19 18 18 18 18 20 22 22 21 22 23 26 27 26 24 22 21 22 25 27 29 28 25 24 24 23 22 21 21 21 20 19 18 18 17 17 16 16 15
34 33 32 28 25 23 22 23 22 22 21 21 22 21 21 20 21 21 22 22 23 24 23 23 23 23 21 21 22 23 22 21 20 19 17 17 18 18 20 21 22 22 21 20 19 18 19 19 19 18 18 19 21 22 22 23 23 25 27 27 25 23 21 22 24 28 30 28 26 26 26 25 24 23 22 22 21 20 20 19 18 17 17 16 16
33 32 31 29 27 25 23 22 22 22 21 20 20 20 21 21 21 22 21 22 24 24 23 23 23 23 21 21 22 23 22 21 20 18 16 16 17 18 19 21 22 22 21 20 18 18 19 19 19 19 18 19 20 22 23 23 24 25 28 29 28 25 23 23 24 27 30 28 28 28 28 27 25 25 24 23 22 21 21 20 19 17 17 16 16
32 31 29 27 26 27 25 23 21 20 20 20 20 19 21 21 21 21 21 22 24 24 23 22 22 23 22 22 22 22 22 22 21 18 16 16 16 17 19 20 21 20 20 19 18 18 20 20 19 18 17 18 20 22 23 24 25 26 28 30 30 27 25 24 24 26 29 29 29 30 29 28 26 25 25 24 24 23 22 21 19 18 17 16 16
30 30 30 27 25 25 25 25 22 21 20 19 19 19 21 21 21 21 21 22 23 23 21 21 22 22 22 22 21 22 22 22 21 19 18 17 17 17 17 18 18 18 18 18 18 18 19 19 18 17 16 18 20 22 23 25 27 28 30 32 33 30 26 25 25 26 27 29 31 30 30 29 28 26 26 26 25 24 23 21 20 19 18 17 16
29 28 27 26 25 24 24 24 22 20 19 19 19 20 21 21 22 21 21 23 23 22 21 20 21 21 21 21 21 21 21 20 19 19 18 17 17 16 17 17 17 17 17 17 17 17 17 17 17 17 17 18 19 21 23 25 27 29 31 34 34 31 28 27 26 25 25 28 32 31 31 30 29 28 27 27 26 25 24 23 21 20 18 17 17
28 26 24 24 25 24 23 22 20 19 18 18 19 20 21 21 22 21 22 23 23 22 21 21 21 21 20 21 20 19 18 18 18 17 16 16 16 16 16 17 16 15 16 17 17 16 15 16 16 17 18 19 19 18 20 22 25 27 31 35 35 32 30 28 27 25 24 28 32 32 32 32 30 30 29 28 27 26 25 24 23 21 20 18 17
24 25 25 25 24 21 20 20 20 20 19 18 19 20 21 21 21 22 23 24 24 23 22 20 20 20 19 19 19 19 19 18 18 17 16 16 16 15 14 15 15 14 15 17 17 16 16 17 17 17 19 20 20 18 17 18 21 26 30 34 35 34 32 29 28 27 25 28 32 33 33 32 31 30 30 29 28 27 26 25 24 23 22 20 19
21 23 24 26 26 24 22 20 21 21 20 19 19 20 21 22 21 22 24 26 26 24 22 21 20 19 18 19 20 22 21 18 18 18 17 17 17 14 13 13 14 14 16 18 18 18 19 20 19 19 20 20 20 19 18 18 19 22 27 33 35 36 34 30 28 26 25 28 31 32 33 32 32 31 30 29 28 28 27 26 26 25 24 23 21
18 20 21 24 27 27 25 22 22 22 21 20 21 21 20 22 21 21 24 24 26 26 24 23 20 19 19 20 20 22 21 18 17 17 18 18 17 14 12 12 12 12 14 16 18 18 19 20 20 20 21 21 20 20 19 18 18 19 23 30 36 37 35 31 28 26 25 27 29 31 32 32 32 31 31 30 29 29 28 28 27 27 27 26 24
17 18 19 21 22 24 23 22 23 24 23 22 23 22 22 23 22 22 23 22 23 25 25 24 21 20 20 19 18 19 20 18 17 17 18 19 18 15 13 13 12 11 11 13 15 16 17 18 20 21 21 21 21 21 20 19 18 18 19 25 34 38 37 34 30 28 26 26 28 30 31 32 32 32 32 32 30 30 30 30 29 29 29 28 26
16 17 18 18 19 21 21 21 21 22 23 23 23 24 24 24 25 24 23 22 22 23 24 25 22 21 22 20 17 18 19 19 18 17 18 19 18 16 15 15 14 13 14 14 14 15 16 17 20 21 20 20 21 20 20 19 19 18 18 20 28 36 38 37 34 31 28 26 27 29 31 32 33 33 34 33 32 31 31 32 31 31 30 29 28
15 16 17 18 18 19 19 20 20 21 21 22 23 24 25 25 25 23 22 22 22 22 23 23 22 22 22 21 19 17 17 17 16 16 17 18 19 18 17 17 16 16 16 16 16 15 15 17 19 19 19 20 21 20 19 20 20 19 19 18 22 30 36 38 37 33 29 27 27 28 30 31 32 33 34 35 34 34 33 33 32 32 32 31 30
16 16 17 18 19 19 18 18 19 20 20 21 23 23 24 24 24 23 21 22 23 23 22 21 21 22 23 22 21 19 17 16 15 15 17 18 20 20 20 19 17 16 16 16 16 17 17 17 18 19 19 20 20 20 19 19 20 21 20 19 20 26 34 38 37 34 31 29 28 28 29 30 32 33 34 35 35 35 35 34 33 32 32 32 31
16 16 17 18 19 19 18 18 18 19 19 19 21 22 22 22 22 22 21 22 23 25 24 23 22 22 23 23 23 22 21 21 19 17 19 20 21 21 22 21 18 17 18 18 17 17 18 18 18 17 18 18 18 19 19 20 20 21 22 22 22 25 31 36 37 36 34 32 29 28 28 29 30 32 33 34 35 35 35 35 34 33 33 33 32
17 17 18 19 19 19 19 19 18 18 17 18 18 20 21 21 21 21 22 22 23 25 25 25 24 24 25 24 24 23 22 22 21 20 21 22 22 23 24 22 20 19 19 19 18 18 19 20 18 16 16 15 16 18 19 20 20 19 22 24 25 27 31 35 37 36 36 35 33 30 29 29 30 31 33 34 34 34 35 35 35 35 35 34 34
19 19 20 20 20 20 20 19 18 17 17 17 17 19 20 21 22 22 23 22 22 24 25 26 26 26 26 25 24 23 22 22 21 22 23 23 23 24 25 24 21 19 19 19 19 20 21 21 19 18 17 16 16 18 19 20 20 20 20 22 24 26 30 34 36 37 37 37 36 34 32 31 30 31 32 32 32 33 33 34 35 36 36 36 36
20 21 22 22 21 21 20 19 18 17 17 17 17 18 19 21 22 23 24 24 23 24 25 26 26 27 27 25 25 25 24 23 22 23 24 23 23 24 25 24 21 19 19 20 21 21 22 22 22 21 19 18 18 19 19 20 21 21 21 20 21 22 25 29 32 35 37 38 38 37 35 34 32 31 31 31 31 31 32 33 34 35 35 36 36
22 23 24 23 23 20 18 17 17 17 17 17 17 17 18 19 21 22 23 24 25 25 25 26 27 28 27 26 26 26 26 25 25 25 25 24 23 24 24 22 21 20 20 21 21 22 22 23 23 22 20 20 21 21 21 21 21 21 21 21 21 21 23 25 28 31 35 38 39 39 38 37 35 33 31 30 30 31 31 32 33 33 34 35 35
23 24 23 23 22 19 17 16 17 17 17 17 17 17 17 18 19 19 21 22 24 26 26 26 27 28 28 27 26 27 27 27 26 26 26 26 24 23 22 21 21 21 21 21 22 22 21 22 23 22 21 21 22 22 22 21 21 21 21 22 22 23 24 25 28 30 33 36 38 40 41 40 38 36 33 31 30 30 30 30 31 32 33 33 34
23 22 22 24 22 18 16 17 17 17 18 17 17 17 17 18 18 18 19 20 22 25 26 25 27 28 28 28 27 27 28 27 27 27 27 27 25 23 22 21 21 21 21 21 21 21 21 21 21 22 22 23 22 21 21 21 20 20 21 22 23 24 25 26 27 30 33 35 37 40 41 42 42 39 35 33 31 30 29 29 30 31 32 33 33
23 22 23 24 21 18 16 17 18 18 19 18 17 18 19 19 19 18 18 19 21 23 24 24 25 26 27 28 28 28 28 28 28 28 28 28 26 24 22 21 21 21 22 21 21 21 20 19 20 20 20 21 21 21 22 21 21 21 21 22 22 24 25 25 27 29 31 33 35 39 42 43 43 41 38 36 35 32 31 31 30 30 31 32 32
22 22 23 22 19 18 17 17 18 19 19 19 19 18 18 19 20 20 20 20 20 21 23 23 24 25 25 26 28 28 28 29 29 29 28 28 27 25 23 23 22 22 22 22 21 20 19 19 19 20 19 19 20 21 21 21 22 21 20 20 22 23 24 26 27 28 29 30 32 36 40 43 44 43 42 40 39 37 34 33 32 31 30 30 30
22 23 23 20 18 18 18 18 18 19 19 19 19 18 18 19 20 21 21 21 21 21 22 23 23 24 24 25 26 28 29 29 29 29 29 28 28 27 25 24 24 24 24 23 22 20 19 19 20 22 21 21 21 21 21 21 22 21 19 20 22 23 24 26 27 28 29 29 30 32 36 41 42 43 44 44 42 40 38 36 34 33 32 30 29
23 23 22 19 18 17 18 18 19 20 20 19 19 19 18 18 20 20 20 21 21 21 22 22 22 23 23 24 25 27 28 29 29 29 29 28 28 28 27 26 26 25 25 25 24 21 20 20 20 21 22 22 22 22 23 23 22 22 22 23 23 24 26 26 27 28 29 30 31 30 31 37 39 39 43 46 45 43 41 39 37 35 34 32 30
23 22 22 20 18 18 20 20 21 20 20 19 19 18 18 17 19 20 19 19 20 21 22 22 22 22 23 23 24 25 27 28 28 29 29 29 29 28 28 27 27 27 26 26 25 23 22 21 21 21 22 23 23 23 24 24 24 25 26 27 25 26 27 27 27 28 28 30 32 31 30 34 37 38 40 44 46 46 43 42 40 38 36 35 33
22 22 23 22 20 19 21 22 23 22 20 19 18 17 17 17 18 20 20 20 20 20 21 22 23 23 23 23 24 25 26 26 27 28 29 29 28 28 28 27 27 27 27 26 25 24 23 23 22 22 22 23 24 24 25 25 26 27 27 28 27 26 28 28 28 28 27 26 28 28 29 32 35 37 38 40 43 45 45 45 43 41 39 38 37
22 24 24 23 22 21 22 23 24 24 21 20 18 17 16 16 18 20 20 20 21 21 21 22 23 23 24 24 24 24 25 26 27 27 28 28 28 28 28 28 28 27 27 26 26 25 24 24 23 23 23 23 24 25 25 26 27 27 27 27 26 25 26 26 26 26 25 24 23 22 24 29 33 36 38 38 39 42 43 44 44 43 42 41 40
24 27 24 22 23 22 23 24 24 25 24 22 19 18 17 17 18 19 20 21 21 22 22 22 23 23 24 24 24 24 24 25 26 27 28 28 28 28 28 28 28 27 26 26 26 26 25 24 24 24 24 23 24 25 25 26 26 27 27 27 26 25 24 25 24 24 23 23 23 21 21 23 28 34 37 38 39 40 41 41 43 43 43 43 42
25 29 26 21 23 24 25 25 24 26 26 24 21 19 19 20 20 20 20 21 21 22 22 22 23 24 24 23 23 23 24 24 25 25 26 27 28 28 28 28 27 27 26 25 25 25 25 24 24 24 24 24 25 25 25 26 26 26 26 26 26 25 24 23 23 23 21 21 21 20 18 17 20 25 31 36 39 41 43 42 42 42 43 44 44
24 26 27 25 26 26 26 26 25 27 28 26 23 21 22 24 23 21 21 21 22 22 22 22 23 23 23 23 23 23 23 24 24 24 25 25 26 26 27 26 26 26 25 24 24 24 24 23 23 23 23 23 23 24 24 25 25 25 25 25 24 24 23 22 22 23 22 21 20 19 19 19 18 19 22 28 33 39 43 45 45 44 44 44 45
27 25 27 31 32 28 27 28 27 28 29 28 25 23 24 27 26 24 22 22 22 22 22 22 22 22 22 22 22 23 23 23 23 23 23 24 24 24 25 25 25 24 24 23 21 21 21 21 21 21 21 21 21 22 23 24 24 24 24 24 23 23 22 21 22 23 23 23 23 23 23 23 22 22 21 21 24 29 37 43 45 46 46 45 46
32 30 28 32 34 31 30 31 30 29 29 29 27 25 26 28 28 26 22 20 21 21 21 21 21 20 20 21 21 22 23 23 22 22 22 22 22 22 23 23 23 22 22 21 20 19 18 18 18 19 19 19 20 20 21 22 22 23 23 23 22 22 21 21 21 22 23 24 25 25 25 23 23 24 23 22 21 22 27 35 40 44 47 48 48
Wind_Direction
261 262 263 264 264 266 268 271 274 275 277 279 282 284 285 285 284 284 282 284 286 288 290 292 294 295 295 294 291 287 283 278 276 275 274 272 267 258 249 243 239 237 236 235 236 238 238 238 237 229 223 221 212 202 193 181 177 179 186 190 191 190 189 190 192 192 188 187 185 177 174 174 171 167 163 160 158 156 151 142 134 128 121 116 113
258 262 263 264 266 268 270 271 273 275 277 280 283 285 285 286 286 286 284 285 287 290 292 294 295 296 296 294 291 286 280 275 273 273 271 269 267 259 248 241 237 235 235 234 233 238 240 239 237 231 220 216 212 204 198 189 183 181 186 191 193 192 191 192 193 194 192 191 189 183 180 180 174 170 168 166 165 162 160 151 141 135 129 123 118
259 263 264 265 267 269 271 272 275 277 279 281 283 286 287 287 287 287 286 287 288 290 292 295 296 297 297 295 291 285 279 274 271 270 267 265 265 260 250 241 236 233 234 233 231 236 240 242 241 236 226 216 211 206 201 195 190 183 185 191 194 195 194 193 193 195 195 193 192 188 187 187 180 175 172 171 170 168 167 160 149 143 137 130 124
261 263 263 265 266 269 271 274 277 278 280 282 285 288 289 288 288 288 287 288 288 289 291 293 295 296 296 294 290 285 280 275 271 268 265 262 262 260 253 243 237 233 234 234 231 234 239 244 245 242 233 222 213 206 202 199 196 188 185 189 196 198 197 194 193 196 198 196 195 193 192 192 186 180 176 175 175 174 173 168 158 150 146 138 132
260 261 260 262 265 268 270 274 276 278 280 283 286 288 288 288 288 288 288 288 288 288 289 290 293 294 294 292 289 285 281 276 272 268 264 260 259 260 255 246 239 236 234 235 234 233 236 242 244 244 239 228 218 208 203 201 198 193 189 191 197 200 198 195 195 197 198 199 199 198 197 197 193 186 181 179 178 178 178 175 167 158 153 145 138
259 258 259 261 263 267 270 273 275 279 282 285 288 287 288 287 287 288 288 288 287 288 288 288 290 291 292 291 288 285 280 276 273 269 265 259 256 256 254 247 241 238 237 236 236 235 236 240 243 244 242 235 224 213 206 204 201 197 194 194 199 199 198 198 198 198 199 201 202 203 204 202 199 194 187 183 181 180 181 180 174 165 159 153 146
256 257 259 261 264 267 269 271 275 280 285 288 289 288 288 287 287 286 287 287 286 287 286 286 288 289 291 290 287 283 279 275 273 268 264 259 254 252 251 246 241 240 239 238 237 237 237 240 243 245 244 239 230 220 211 208 205 202 200 197 198 198 199 200 200 200 201 203 204 207 209 209 204 200 194 189 185 181 182 183 179 171 165 159 153
257 258 260 263 265 266 268 270 274 279 284 288 288 289 288 287 287 285 285 285 284 285 284 285 286 288 289 289 286 282 278 274 271 267 263 257 252 251 249 246 242 241 241 240 238 237 238 240 244 245 244 240 234 226 218 213 210 208 205 200 197 197 199 201 201 201 202 203 205 208 211 214 210 204 200 195 190 184 182 184 183 176 171 166 160
259 259 261 263 265 266 268 271 274 278 282 285 287 288 288 288 287 285 284 283 283 283 283 284 285 287 288 288 286 282 277 273 270 267 264 258 252 249 248 246 243 242 242 242 240 239 238 240 243 246 244 241 238 232 223 218 216 214 210 204 199 196 198 202 202 203 203 203 206 210 210 214 214 209 204 199 194 188 183 183 185 181 176 171 166
260 260 261 262 264 267 269 273 275 279 282 284 286 288 288 288 287 285 284 283 284 284 284 283 284 285 286 287 286 282 276 272 270 268 265 261 255 248 246 247 246 244 244 245 245 243 241 241 243 246 247 246 243 237 229 222 220 219 215 210 204 197 197 201 203 204 202 203 208 212 213 213 215 213 209 203 197 193 187 184 185 185 180 176 171
261 261 262 263 266 269 271 275 278 281 284 285 286 287 289 288 286 285 285 285 286 286 285 282 282 283 284 286 286 283 276 270 267 264 263 262 259 251 246 246 249 249 249 249 249 247 244 242 243 247 248 248 244 239 233 227 223 221 218 214 208 199 198 199 202 203 199 203 206 209 214 213 214 213 211 206 200 196 191 188 187 186 183 180 177
259 260 261 265 267 270 273 275 280 283 285 286 286 286 288 288 287 286 286 287 287 287 285 282 281 282 284 285 286 282 275 269 263 259 257 259 260 255 248 247 250 253 254 253 251 250 248 245 243 245 248 247 242 236 233 228 225 221 220 219 212 203 201 199 201 201 198 202 202 205 211 211 213 211 209 208 203 200 194 191 191 188 186 184 182
257 259 261 264 267 269 273 276 280 284 285 285 286 286 286 287 287 287 287 286 287 287 285 282 280 281 283 285 286 283 276 270 261 254 252 255 259 257 251 249 251 255 258 258 256 253 251 249 245 244 246 246 241 235 231 228 226 223 221 223 216 208 205 202 201 198 201 203 197 205 209 210 215 212 208 207 204 203 198 193 193 192 189 188 186
259 261 263 264 267 270 273 277 280 282 284 284 284 284 285 287 287 287 288 287 287 288 286 283 281 281 283 286 286 283 278 273 263 253 249 250 254 256 254 252 253 257 261 263 262 258 252 250 248 246 246 246 243 237 233 229 226 224 222 223 219 212 207 204 202 196 204 204 192 204 207 207 214 213 211 206 204 203 201 196 195 196 192 192 190
263 262 263 264 268 271 272 276 279 282 284 284 283 284 286 287 287 288 289 290 290 288 286 284 283 283 284 285 284 282 278 274 265 252 246 246 250 253 255 256 257 258 260 263 265 263 255 249 247 247 247 247 245 240 236 232 227 224 223 223 219 216 210 205 203 196 203 203 194 205 205 205 210 211 214 209 205 201 202 199 196 200 196 196 195
263 261 262 268 271 269 270 274 277 280 281 282 282 285 287 286 288 290 288 288 289 286 285 285 285 285 284 283 282 281 277 273 266 254 245 243 246 251 255 258 260 261 260 263 266 264 258 251 246 245 246 248 248 243 238 235 230 225 223 224 220 218 213 208 205 197 202 202 197 207 205 205 207 207 214 213 209 201 201 201 198 201 200 200 198
263 263 266 273 273 269 270 273 275 276 277 279 282 285 286 285 287 288 285 287 288 284 283 284 285 283 281 280 280 279 275 271 266 255 246 243 244 248 253 257 259 261 262 265 266 264 260 253 246 243 244 246 249 247 241 237 233 229 224 223 223 221 216 210 207 200 204 201 195 206 207 207 209 206 211 214 214 205 201 200 199 201 202 203 201
264 268 270 272 271 271 272 272 273 274 275 279 282 284 284 286 284 281 282 286 285 281 281 281 281 280 278 277 278 276 272 269 264 256 248 245 246 248 251 255 258 260 263 266 267 266 261 255 247 242 241 243 247 248 244 238 234 232 226 223 224 224 220 214 209 203 207 203 192 202 206 206 209 207 209 212 215 211 205 201 199 200 204 205 203
264 267 270 270 271 272 273 272 274 276 278 278 279 282 284 285 281 278 281 284 283 280 280 280 279 277 275 274 272 271 269 266 263 257 252 248 247 249 251 254 258 261 262 265 268 267 262 256 251 246 243 243 245 246 244 239 234 233 230 225 223 224 223 219 213 206 209 204 193 200 205 203 205 207 209 211 213 213 210 206 201 200 203 206 205
264 265 268 269 272 274 273 272 272 274 278 279 279 282 284 283 279 280 283 283 281 279 281 282 280 277 273 270 267 267 266 264 262 260 257 254 251 251 254 256 258 260 261 264 266 265 260 256 253 250 247 245 245 245 243 241 235 232 233 230 224 222 223 223 217 210 210 206 197 201 205 202 202 205 208 211 213 213 212 209 205 202 202 205 206
265 266 268 270 272 273 273 271 272 275 280 281 280 281 279 278 278 281 284 281 278 277 280 280 279 277 274 267 264 265 266 265 263 262 261 258 256 255 255 257 257 258 259 261 262 260 256 253 252 252 249 246 245 245 244 242 237 232 234 234 229 222 221 224 221 214 210 206 202 203 206 204 202 203 206 209 214 216 216 212 209 205 204 206 207
264 265 267 270 272 272 274 276 278 280 280 278 277 278 277 276 278 281 282 278 274 274 276 277 279 278 272 264 259 261 264 264 264 265 263 260 260 259 257 256 255 256 255 255 257 256 254 251 250 250 249 248 247 245 245 243 240 237 236 234 232 226 221 224 224 219 212 208 206 206 207 206 204 205 206 208 212 216 219 217 212 208 206 207 208
262 264 268 272 275 276 277 278 281 280 276 276 276 278 278 277 278 279 279 275 273 273 274 275 276 275 270 263 259 258 258 258 260 262 261 261 261 261 258 256 254 253 254 255 255 254 254 253 251 249 250 253 251 246 243 243 243 243 239 232 231 228 223 222 224 221 214 210 210 208 208 208 205 206 207 209 211 214 218 221 218 214 209 208 209
261 267 272 276 279 280 279 280 281 280 276 277 278 276 276 278 278 279 279 275 274 273 274 277 277 275 270 264 261 259 256 252 253 255 256 258 258 256 253 254 255 256 256 254 254 252 253 254 254 251 251 255 254 247 241 241 242 243 240 231 228 228 225 223 223 220 213 213 215 211 211 210 207 207 209 210 212 212 215 219 221 220 215 212 210
264 269 275 281 284 281 279 281 282 281 280 281 280 278 277 278 278 279 278 277 277 273 275 282 282 279 270 263 261 259 257 252 250 251 252 253 253 251 250 251 250 252 253 252 253 252 252 254 256 254 251 254 258 255 247 244 242 241 240 233 227 226 227 225 223 218 212 215 218 215 213 213 211 210 210 211 213 213 213 217 220 221 220 217 215
266 273 277 281 286 287 284 285 283 280 281 283 283 282 281 281 279 280 279 277 277 275 278 282 280 279 273 266 264 263 262 256 251 252 253 253 252 248 248 249 243 239 245 248 251 252 255 257 257 255 253 255 258 260 257 254 247 240 237 233 228 225 227 228 227 221 212 215 219 217 216 215 215 214 213 213 214 215 215 217 219 221 222 221 219
270 276 277 276 280 287 291 292 289 286 284 286 285 284 284 282 280 282 280 276 275 277 283 285 280 278 276 270 266 262 259 254 250 251 254 255 254 248 249 256 248 241 242 241 244 248 254 258 257 255 254 255 256 257 258 258 255 248 238 232 227 224 225 229 231 227 218 218 219 219 218 217 218 218 218 216 215 217 217 217 219 220 222 223 222
272 274 276 274 274 280 287 290 290 292 291 289 287 286 284 279 279 281 277 272 273 276 283 287 280 274 273 267 261 259 257 253 250 250 252 255 256 254 254 255 250 249 250 242 240 244 248 255 258 256 255 255 256 258 258 258 259 257 246 233 227 223 222 226 230 229 224 223 222 220 219 218 220 221 221 220 217 218 220 219 219 220 221 222 223
269 273 276 275 273 275 284 290 291 291 290 287 284 283 281 279 281 281 276 274 273 273 279 284 279 273 271 266 259 259 263 261 254 250 251 254 259 263 262 261 255 250 251 249 249 249 249 255 259 258 257 255 256 258 259 260 260 260 254 241 232 226 222 222 225 226 224 223 223 222 221 220 220 221 223 223 221 219 221 222 221 221 221 222 222
274 278 278 275 273 275 280 286 286 285 284 282 279 277 278 278 282 284 282 279 277 276 280 282 280 275 271 271 267 262 265 263 255 253 257 259 264 271 272 270 263 254 253 259 264 261 256 257 260 260 258 256 257 258 259 260 260 261 262 251 240 233 226 223 223 224 224 222 222 223 222 222 222 222 222 223 223 223 224 225 223 223 223 222 222
282 280 278 274 273 274 276 278 278 277 278 278 277 276 276 277 280 282 282 279 277 277 277 276 276 273 268 269 268 262 262 258 250 252 260 262 264 268 268 266 263 259 259 264 270 270 263 258 261 263 260 257 257 257 258 259 258 259 260 256 247 238 231 227 225 224 225 224 222 223 223 224 224 223 222 223 224 225 226 228 228 227 226 225 225
274 271 274 275 275 274 274 278 279 279 279 278 276 274 274 275 277 278 277 277 277 278 278 273 269 267 265 265 264 264 264 261 259 261 263 263 265 268 271 274 269 262 261 264 268 270 268 264 265 267 265 261 259 259 258 258 258 255 255 255 248 240 232 230 228 226 226 227 225 225 225 225 226 225 224 224 224 226 228 229 231 231 231 230 229
271 274 277 280 282 281 278 280 282 283 282 280 275 271 269 271 274 277 276 276 278 282 284 280 274 271 270 267 267 268 267 267 271 272 270 270 272 277 281 284 278 269 267 268 268 267 269 270 268 268 267 265 264 263 258 258 260 254 252 252 244 238 233 231 230 228 228 229 227 228 229 228 228 227 227 226 226 227 228 229 231 233 234 234 233
284 286 285 285 286 286 282 282 283 282 282 280 276 270 267 269 272 275 276 277 277 280 281 280 280 279 276 271 269 268 266 266 268 271 272 273 276 280 283 284 280 278 277 274 271 268 269 271 267 265 266 268 267 266 260 258 261 255 251 250 241 233 231 232 233 232 231 232 230 229 231 232 231 229 228 228 228 228 229 230 230 232 233 234 234
291 291 288 285 284 285 284 284 283 278 276 276 274 270 266 267 269 271 274 275 275 276 277 279 280 280 279 275 272 269 266 265 266 269 272 275 280 283 285 285 283 283 280 276 275 274 273 271 266 264 265 267 268 267 263 258 258 257 255 255 249 238 232 231 234 236 237 238 236 233 232 233 233 232 230 229 230 231 230 231 231 232 233 234 234
291 292 289 284 282 284 284 285 282 275 274 274 273 270 266 264 265 268 270 271 272 272 275 277 279 279 279 277 275 274 272 272 273 273 275 279 284 285 286 287 286 283 280 279 279 277 276 271 264 263 264 264 266 266 265 259 255 256 255 256 256 251 244 237 235 237 240 241 242 240 237 235 234 235 234 232 232 232 232 232 233 234 235 236 236
289 292 289 284 283 284 287 289 284 278 276 276 276 273 269 266 264 264 266 267 268 268 270 273 275 277 278 276 274 273 273 274 276 277 279 281 284 284 285 287 286 284 282 280 277 274 274 269 263 262 263 263 264 266 266 262 257 255 255 255 254 253 253 249 244 240 240 242 242 242 242 239 236 236 236 235 234 234 233 232 233 235 237 238 239
292 292 286 282 282 286 293 295 290 285 282 280 279 275 271 268 267 266 265 265 265 265 266 267 270 272 275 275 270 268 268 269 272 276 279 282 282 283 285 287 287 284 281 277 274 271 269 268 265 265 266 266 266 266 265 263 260 258 256 255 255 254 253 253 252 248 244 243 242 241 242 242 239 237 235 236 237 236 236 235 233 235 237 238 239
292 288 284 281 282 289 294 295 292 288 285 283 280 278 276 273 273 272 269 267 265 264 264 265 267 268 270 271 268 265 265 267 270 273 278 281 281 283 285 286 285 283 280 277 274 269 267 269 272 272 270 268 267 266 267 266 264 261 257 256 257 258 257 256 257 256 253 250 245 241 240 241 241 239 237 237 238 237 237 237 236 237 238 238 238
285 281 280 278 283 292 293 292 291 287 285 281 279 279 281 281 280 278 274 272 269 267 267 267 266 265 265 267 266 264 262 264 268 271 275 278 280 282 284 283 281 280 279 278 274 271 271 273 277 278 274 269 269 271 272 270 266 263 258 257 258 260 261 260 260 261 261 260 256 248 240 238 240 240 240 239 238 236 234 236 238 237 238 239 239
280 277 276 276 284 289 290 292 289 287 285 281 279 278 281 285 285 284 281 278 275 273 272 269 267 266 265 264 263 262 261 262 266 269 272 276 280 281 282 282 281 280 279 277 275 274 275 274 275 279 278 275 276 279 280 276 271 264 258 261 263 263 263 262 261 261 263 264 266 259 245 238 237 237 237 238 238 236 234 233 236 238 237 239 240
276 274 275 279 284 286 289 291 288 287 286 283 281 278 281 286 287 285 283 281 280 279 277 273 271 270 267 264 262 262 262 263 266 269 271 275 279 281 283 283 282 281 280 279 278 276 276 275 275 278 280 279 279 281 283 282 277 267 264 270 271 269 266 264 263 262 263 264 267 267 253 240 238 236 235 236 237 237 236 234 235 237 238 237 239
276 274 276 279 284 289 290 289 288 287 285 284 283 281 285 289 290 287 283 282 282 282 282 279 276 274 270 267 264 263 264 265 267 270 273 275 279 282 284 284 283 282 282 281 281 280 279 278 276 278 280 280 280 280 282 283 279 270 272 275 273 272 270 268 267 266 266 265 264 267 257 244 242 240 236 235 236 237 238 238 237 237 238 239 240
278 273 274 278 284 290 291 291 288 285 286 286 286 287 290 294 296 292 287 283 281 282 283 282 281 279 275 272 269 268 267 268 270 272 275 277 279 281 283 283 283 282 282 282 282 281 280 279 277 278 278 279 280 280 280 280 276 271 274 275 270 268 267 268 271 272 271 268 266 267 261 250 247 246 241 236 237 238 238 240 240 238 239 240 241
279 272 274 279 284 289 292 294 292 288 290 291 292 293 293 296 298 294 290 287 283 282 282 282 283 281 280 278 275 274 273 274 275 276 277 278 279 281 281 281 280 280 280 280 281 280 279 279 279 278 277 277 279 279 278 277 273 272 273 273 270 266 265 267 270 274 275 271 269 268 263 255 251 250 248 241 239 239 239 241 242 242 241 240 239
278 272 272 279 284 289 291 293 294 293 293 297 299 296 294 297 297 294 291 288 286 284 283 282 282 282 282 281 280 279 278 278 278 278 278 278 279 279 279 278 277 277 277 277 278 279 279 280 279 278 278 278 278 277 276 276 274 273 273 274 272 268 266 268 269 273 273 267 265 269 265 257 252 250 250 248 243 241 240 241 242 243 243 243 242
277 265 260 272 282 287 290 291 294 295 296 298 301 299 296 296 295 292 291 289 288 285 284 282 281 281 282 282 282 281 280 279 278 278 278 277 277 277 276 276 275 275 275 275 276 277 278 278 279 279 280 279 278 278 277 277 275 274 275 276 274 271 268 267 268 273 274 266 264 268 268 261 254 250 250 251 249 245 242 241 241 242 243 245 246
275 261 252 266 284 287 289 292 293 295 296 297 300 301 297 296 294 292 291 291 289 286 284 281 280 280 280 281 281 280 280 280 279 278 277 276 276 275 274 274 274 274 274 273 273 274 275 276 277 278 279 279 279 279 278 278 277 276 276 276 275 274 271 268 266 269 273 270 266 264 265 266 260 253 250 249 249 248 246 243 241 241 242 244 246
272 264 255 267 285 288 287 291 292 293 294 294 298 300 297 295 295 294 292 291 289 286 284 280 278 277 278 278 278 277 277 277 278 277 276 275 275 274 274 274 274 274 274 273 271 272 274 275 276 277 278 279 279 280 279 277 277 277 275 274 274 274 272 269 266 266 267 266 263 262 265 269 270 268 260 252 248 247 247 246 243 241 241 242 244
274 273 263 267 279 284 285 289 289 289 290 292 295 297 298 295 295 295 293 290 288 285 282 279 277 276 277 278 277 277 276 275 276 275 275 275 274 275 275 275 275 275 275 275 274 274 274 276 278 278 279 279 279 278 277 276 276 276 275 274 273 273 272 270 266 263 264 263 262 263 268 272 275 277 276 269 260 252 250 249 247 244 242 242 243
279 279 270 266 272 278 283 286 284 284 287 289 292 295 296 294 294 294 290 287 286 283 281 278 277 277 277 277 277 277 277 276 276 275 274 274 274 274 275 276 277 277 277 278 279 279 279 280 281 281 281 281 279 278 277 277 276 275 275 274 274 273 271 270 266 263 262 263 264 265 268 272 274 274 275 275 273 267 260 254 250 248 246 244 245
Height
5843 5843 5844 5844 5844 5844 5845 5845 5845 5845 5845 5845 5845 5845 5845 5844 5844 5843 5842 5842 5842 5842 5842 5841 5841 5840 5840 5839 5839 5838 5837 5836 5835 5835 5835 5835 5835 5835 5835 5835 5835 5836 5836 5837 5837 5837 5838 5838 5838 5838 5839 5839 5839 5840 5840 5840 5841 5841 5842 5843 5843 5844 5845 5845 5846 5847 5847 5848 5849 5849 5850 5850 5851 5851 5851 5851 5852 5852 5852 5853 5854 5854 5855 5855 5855
5842 5842 5843 5842 5843 5843 5843 5843 5843 5843 5843 5843 5843 5843 5842 5842 5842 5841 5841 5840 5840 5840 5840 5839 5839 5838 5838 5838 5837 5836 5836 5835 5834 5834 5834 5834 5834 5834 5834 5834 5835 5835 5835 5836 5836 5837 5837 5837 5837 5837 5838 5838 5839 5839 5839 5840 5840 5841 5842 5842 5843 5843 5844 5845 5845 5846 5847 5848 5849 5850 5850 5851 5851 5851 5851 5851 5852 5852 5853 5853 5854 5854 5855 5855 5856
5841 5841 5841 5841 5841 5841 5842 5841 5841 5841 5841 5841 5841 5841 5840 5840 5840 5839 5839 5839 5838 5838 5838 5838 5837 5837 5836 5836 5835 5835 5834 5834 5833 5833 5833 5833 5832 5833 5833 5833 5834 5834 5834 5835 5835 5836 5836 5836 5837 5837 5837 5837 5838 5838 5839 5839 5840 5840 5841 5842 5843 5843 5843 5844 5845 5846 5847 5848 5849 5850 5850 5851 5851 5851 5851 5852 5852 5852 5853 5853 5854 5854 5855 5855 5856
5839 5839 5839 5839 5840 5839 5840 5839 5840 5839 5839 5839 5838 5839 5838 5838 5838 5838 5837 5837 5837 5836 5836 5836 5835 5835 5835 5834 5833 5833 5833 5832 5832 5832 5832 5832 5831 5831 5832 5833 5833 5833 5833 5834 5834 5835 5835 5836 5836 5836 5837 5837 5837 5837 5838 5839 5839 5840 5841 5841 5842 5842 5843 5844 5845 5846 5847 5848 5849 5849 5850 5851 5851 5851 5851 5852 5852 5852 5853 5853 5854 5855 5855 5856 5856
5838 5837 5837 5837 5837 5837 5838 5838 5838 5837 5837 5837 5837 5837 5836 5836 5836 5836 5836 5835 5835 5834 5834 5834 5834 5834 5833 5832 5832 5831 5831 5831 5831 5831 5831 5831 5830 5830 5830 5831 5832 5832 5833 5833 5834 5834 5835 5835 5835 5836 5836 5836 5836 5837 5837 5838 5839 5839 5840 5840 5841 5842 5843 5844 5845 5845 5846 5847 5848 5849 5850 5850 5851 5851 5851 5851 5852 5852 5853 5853 5854 5855 5855 5856 5856
5836 5835 5835 5835 5835 5836 5836 5836 5836 5836 5835 5835 5835 5835 5835 5834 5834 5834 5834 5834 5833 5833 5832 5832 5832 5832 5832 5831 5830 5830 5829 5829 5829 5829 5830 5830 5829 5829 5829 5830 5831 5831 5832 5832 5833 5833 5834 5834 5835 5835 5836 5836 5836 5836 5837 5837 5838 5838 5839 5839 5840 5842 5843 5844 5844 5845 5846 5847 5848 5849 5850 5850 5851 5851 5851 5851 5852 5852 5853 5853 5854 5855 5855 5856 5856
5834 5834 5833 5833 5834 5834 5834 5834 5834 5834 5834 5833 5833 5833 5833 5833 5833 5833 5832 5832 5831 5831 5830 5830 5830 5830 5830 5829 5829 5828 5828 5828 5828 5828 5828 5828 5828 5828 5828 5829 5829 5830 5831 5832 5832 5833 5833 5834 5834 5835 5835 5835 5836 5836 5836 5837 5837 5837 5838 5839 5840 5841 5842 5843 5844 5845 5846 5846 5848 5849 5849 5850 5850 5851 5851 5851 5851 5852 5852 5853 5854 5854 5855 5856 5856
5831 5832 5831 5832 5832 5832 5832 5832 5832 5832 5832 5832 5831 5831 5831 5831 5831 5831 5830 5830 5829 5829 5829 5829 5829 5828 5828 5828 5828 5827 5827 5826 5826 5826 5826 5827 5827 5827 5827 5827 5828 5829 5829 5830 5831 5832 5832 5833 5833 5834 5834 5835 5835 5836 5836 5836 5837 5837 5837 5838 5839 5841 5842 5843 5844 5844 5845 5846 5847 5848 5849 5849 5850 5850 5850 5851 5851 5851 5852 5853 5854 5855 5855 5856 5856
5829 5830 5830 5830 5830 5830 5830 5830 5830 5830 5830 5830 5830 5829 5829 5829 5829 5829 5829 5828 5827 5827 5827 5827 5827 5827 5827 5827 5826 5826 5825 5825 5825 5825 5825 5826 5826 5826 5826 5826 5827 5828 5828 5829 5830 5831 5831 5832 5832 5833 5833 5834 5834 5835 5835 5836 5836 5836 5837 5838 5838 5840 5841 5842 5843 5844 5845 5846 5846 5847 5848 5848 5849 5850 5850 5850 5851 5851 5852 5853 5854 5855 5855 5856 5856
5827 5827 5828 5828 5828 5828 5829 5829 5829 5829 5828 5828 5828 5828 5828 5828 5828 5827 5827 5826 5826 5826 5826 5826 5826 5826 5825 5825 5825 5825 5824 5824 5824 5824 5824 5824 5824 5825 5825 5825 5826 5827 5827 5828 5829 5830 5831 5831 5831 5831 5832 5833 5834 5834 5834 5835 5835 5836 5836 5837 5837 5839 5840 5841 5842 5843 5845 5846 5846 5847 5847 5848 5848 5849 5850 5850 5851 5851 5852 5853 5854 5854 5855 5856 5856
5825 5825 5825 5825 5826 5826 5826 5826 5826 5826 5826 5826 5826 5826 5826 5826 5826 5825 5825 5825 5824 5824 5824 5824 5824 5824 5824 5824 5823 5823 5823 5823 5823 5822 5822 5822 5823 5824 5825 5825 5825 5825 5826 5827 5828 5829 5830 5830 5830 5830 5831 5831 5832 5833 5833 5834 5834 5835 5836 5836 5837 5838 5838 5840 5841 5842 5844 5845 5845 5846 5847 5847 5847 5848 5849 5850 5851 5851 5852 5852 5853 5854 5855 5855 5856
5822 5823 5823 5824 5824 5824 5824 5824 5824 5824 5824 5824 5824 5824 5824 5824 5824 5824 5823 5823 5823 5822 5822 5822 5822 5822 5822 5822 5822 5821 5821 5821 5821 5821 5821 5821 5821 5822 5823 5824 5824 5824 5825 5826 5826 5827 5828 5829 5829 5829 5829 5830 5831 5832 5832 5833 5833 5834 5835 5835 5836 5837 5837 5838 5839 5841 5843 5843 5845 5845 5845 5846 5847 5848 5849 5850 5851 5851 5852 5852 5853 5854 5855 5855 5856
5820 5821 5821 5822 5822 5822 5822 5822 5822 5822 5822 5822 5822 5822 5822 5822 5822 5822 5822 5821 5821 5821 5820 5820 5820 5820 5820 5820 5820 5820 5820 5820 5820 5820 5820 5820 5820 5820 5821 5823 5823 5823 5824 5825 5825 5826 5827 5827 5827 5828 5828 5829 5830 5831 5831 5832 5832 5833 5833 5834 5835 5836 5837 5838 5839 5841 5842 5842 5845 5844 5844 5846 5846 5847 5848 5849 5850 5851 5851 5852 5853 5853 5854 5855 5855
5819 5819 5819 5819 5820 5820 5820 5820 5820 5820 5820 5820 5820 5820 5820 5820 5820 5820 5820 5820 5819 5819 5819 5818 5818 5818 5818 5818 5818 5818 5818 5818 5818 5819 5819 5819 5819 5819 5820 5821 5822 5822 5823 5823 5824 5824 5825 5826 5826 5827 5827 5827 5828 5829 5830 5830 5831 5832 5832 5833 5834 5835 5836 5837 5838 5840 5841 5843 5844 5843 5844 5845 5845 5847 5848 5849 5849 5850 5851 5852 5852 5853 5854 5854 5855
5817 5816 5816 5817 5817 5818 5818 5818 5818 5818 5818 5818 5818 5817 5818 5818 5818 5818 5818 5819 5818 5818 5817 5816 5816 5816 5816 5816 5816 5816 5817 5817 5817 5817 5817 5817 5817 5817 5818 5819 5820 5821 5822 5822 5822 5822 5823 5824 5825 5826 5826 5826 5827 5828 5829 5829 5830 5830 5831 5832 5833 5833 5834 5835 5837 5839 5840 5842 5843 5842 5843 5844 5845 5847 5848 5848 5849 5849 5851 5852 5852 5853 5853 5854 5855
5813 5813 5813 5814 5815 5815 5815 5815 5815 5816 5815 5815 5815 5815 5816 5816 5816 5817 5817 5817 5816 5816 5815 5814 5814 5814 5814 5813 5814 5815 5815 5815 5815 5815 5816 5816 5816 5816 5816 5817 5818 5819 5820 5820 5820 5820 5821 5823 5824 5825 5825 5825 5825 5826 5828 5828 5829 5829 5830 5831 5831 5832 5833 5834 5835 5838 5838 5840 5842 5842 5843 5844 5844 5846 5847 5848 5848 5849 5850 5851 5852 5852 5853 5854 5854
5811 5810 5811 5812 5812 5812 5813 5813 5813 5813 5813 5813 5813 5813 5814 5814 5814 5814 5814 5814 5814 5813 5813 5812 5812 5812 5811 5811 5812 5813 5813 5813 5813 5813 5814 5815 5815 5815 5815 5816 5816 5817 5817 5818 5819 5818 5819 5821 5822 5823 5823 5824 5824 5825 5826 5827 5828 5828 5828 5829 5830 5831 5832 5833 5834 5836 5837 5838 5841 5842 5843 5843 5844 5845 5846 5847 5848 5848 5849 5850 5851 5852 5852 5853 5854
5809 5808 5809 5810 5810 5810 5811 5811 5811 5811 5811 5811 5811 5811 5811 5812 5812 5812 5812 5812 5812 5811 5811 5810 5810 5809 5810 5810 5810 5810 5810 5810 5811 5811 5812 5813 5813 5813 5814 5814 5814 5814 5815 5816 5817 5817 5817 5819 5820 5821 5822 5822 5823 5823 5825 5826 5826 5827 5827 5827 5828 5829 5831 5832 5833 5835 5835 5837 5840 5840 5841 5843 5844 5844 5845 5846 5847 5848 5848 5849 5850 5851 5852 5852 5853
5807 5807 5808 5808 5808 5809 5809 5809 5809 5809 5809 5809 5808 5808 5809 5809 5810 5810 5810 5810 5810 5809 5809 5808 5808 5808 5808 5809 5808 5808 5808 5808 5808 5809 5810 5811 5811 5812 5812 5812 5812 5813 5813 5814 5815 5815 5816 5816 5818 5819 5820 5821 5821 5822 5823 5824 5824 5825 5826 5826 5827 5828 5830 5831 5832 5833 5833 5836 5839 5839 5840 5841 5843 5844 5844 5845 5846 5848 5848 5849 5849 5850 5851 5852 5853
5805 5806 5806 5806 5806 5807 5807 5807 5807 5806 5806 5806 5806 5807 5807 5807 5807 5808 5809 5809 5808 5808 5807 5806 5806 5806 5806 5807 5806 5806 5806 5806 5806 5806 5808 5809 5809 5810 5810 5810 5810 5811 5811 5811 5812 5813 5814 5814 5815 5817 5818 5819 5820 5820 5821 5822 5823 5823 5824 5825 5825 5826 5828 5829 5830 5831 5833 5836 5837 5837 5838 5840 5841 5842 5843 5844 5845 5847 5848 5848 5849 5850 5850 5851 5852
5802 5803 5803 5803 5804 5804 5803 5803 5803 5804 5804 5804 5804 5805 5805 5804 5805 5806 5807 5807 5806 5806 5805 5804 5803 5803 5804 5804 5804 5804 5804 5804 5805 5805 5806 5807 5807 5808 5808 5808 5808 5809 5809 5810 5810 5811 5811 5812 5813 5815 5816 5817 5818 5819 5819 5820 5821 5822 5823 5824 5824 5825 5826 5827 5828 5829 5831 5834 5835 5835 5836 5838 5840 5841 5842 5843 5845 5846 5847 5848 5848 5849 5850 5851 5852
5799 5800 5800 5800 5800 5801 5800 5799 5801 5802 5802 5802 5802 5803 5802 5802 5802 5803 5804 5804 5803 5803 5803 5802 5802 5801 5801 5801 5801 5802 5802 5803 5803 5804 5805 5805 5805 5805 5806 5806 5806 5806 5807 5808 5808 5809 5809 5810 5811 5812 5814 5815 5816 5817 5818 5818 5819 5820 5821 5822 5823 5824 5824 5825 5826 5828 5830 5833 5833 5834 5835 5837 5838 5840 5841 5842 5843 5845 5846 5847 5848 5849 5849 5850 5851
5797 5798 5798 5798 5797 5798 5799 5798 5798 5800 5800 5800 5801 5801 5800 5800 5800 5801 5802 5801 5801 5801 5801 5801 5800 5799 5799 5800 5800 5800 5801 5801 5802 5802 5803 5803 5803 5803 5804 5804 5804 5805 5805 5806 5806 5807 5808 5808 5810 5811 5812 5813 5814 5815 5816 5816 5817 5817 5818 5819 5821 5822 5823 5823 5824 5826 5829 5831 5831 5832 5834 5835 5837 5838 5839 5840 5842 5843 5845 5847 5848 5848 5849 5850 5850
5796 5796 5797 5796 5796 5797 5797 5796 5796 5797 5797 5798 5798 5798 5798 5798 5798 5799 5799 5798 5798 5799 5799 5799 5799 5798 5798 5798 5798 5798 5798 5800 5800 5800 5801 5801 5802 5802 5802 5802 5803 5804 5804 5804 5804 5805 5806 5807 5809 5809 5810 5811 5812 5813 5813 5814 5814 5815 5816 5817 5818 5821 5821 5821 5822 5824 5828 5830 5830 5831 5832 5833 5835 5836 5838 5839 5840 5842 5844 5845 5846 5847 5848 5849 5850
5794 5794 5795 5794 5794 5795 5794 5794 5794 5794 5795 5795 5796 5796 5796 5796 5796 5797 5797 5796 5796 5796 5796 5797 5797 5796 5796 5795 5796 5796 5795 5797 5798 5798 5799 5800 5800 5801 5801 5801 5801 5803 5804 5804 5803 5804 5805 5806 5807 5808 5809 5809 5810 5810 5811 5812 5812 5813 5814 5815 5817 5819 5819 5820 5820 5822 5826 5827 5827 5829 5830 5831 5833 5834 5836 5837 5839 5840 5842 5843 5845 5846 5847 5848 5849
5792 5791 5792 5792 5790 5791 5790 5790 5791 5792 5793 5793 5794 5794 5794 5794 5794 5795 5793 5792 5793 5793 5794 5795 5795 5794 5793 5794 5795 5794 5793 5794 5795 5796 5797 5797 5798 5798 5799 5799 5800 5801 5802 5802 5802 5803 5804 5805 5806 5807 5807 5808 5808 5809 5809 5810 5810 5811 5812 5813 5815 5817 5817 5818 5819 5820 5824 5824 5824 5827 5828 5830 5831 5833 5834 5836 5837 5839 5841 5842 5843 5844 5845 5846 5847
5790 5789 5790 5789 5786 5785 5784 5786 5787 5788 5789 5790 5790 5791 5792 5791 5791 5791 5790 5789 5789 5789 5791 5792 5793 5792 5792 5793 5794 5793 5792 5793 5794 5794 5795 5795 5795 5796 5797 5798 5799 5800 5800 5800 5801 5802 5802 5803 5804 5805 5806 5807 5807 5807 5808 5808 5808 5809 5810 5811 5813 5814 5814 5817 5818 5820 5822 5822 5823 5824 5826 5828 5829 5831 5833 5834 5836 5838 5839 5840 5841 5843 5844 5845 5846
5788 5789 5789 5788 5786 5785 5784 5785 5785 5785 5785 5786 5787 5788 5790 5789 5789 5790 5789 5789 5787 5786 5787 5788 5789 5790 5790 5791 5792 5792 5791 5792 5792 5793 5793 5794 5794 5795 5797 5797 5798 5799 5798 5799 5800 5800 5800 5801 5802 5803 5804 5804 5805 5805 5806 5806 5806 5807 5808 5809 5810 5811 5812 5814 5816 5818 5821 5821 5822 5823 5824 5826 5827 5829 5830 5832 5834 5836 5837 5838 5840 5841 5842 5843 5844
5786 5788 5789 5789 5788 5787 5785 5784 5784 5783 5783 5784 5785 5785 5786 5786 5786 5787 5787 5787 5786 5784 5784 5785 5787 5787 5787 5788 5790 5790 5788 5789 5790 5791 5791 5792 5792 5793 5795 5795 5796 5797 5797 5798 5799 5800 5799 5799 5800 5800 5801 5802 5802 5803 5803 5804 5805 5805 5806 5807 5808 5808 5809 5811 5813 5815 5817 5819 5820 5821 5822 5823 5825 5826 5828 5830 5831 5833 5835 5836 5837 5838 5840 5841 5842
5783 5786 5787 5788 5788 5787 5786 5785 5784 5782 5781 5781 5781 5781 5781 5782 5782 5783 5783 5783 5783 5783 5783 5783 5784 5785 5784 5784 5787 5788 5788 5788 5788 5789 5789 5789 5790 5790 5792 5793 5794 5795 5795 5796 5797 5798 5798 5798 5798 5799 5799 5799 5800 5800 5801 5802 5803 5803 5804 5805 5805 5806 5807 5809 5810 5812 5814 5816 5818 5819 5820 5821 5822 5824 5825 5827 5829 5830 5832 5833 5835 5836 5837 5839 5840
5781 5784 5785 5786 5786 5786 5786 5785 5784 5783 5781 5780 5779 5779 5779 5779 5779 5780 5781 5781 5781 5781 5782 5783 5782 5783 5783 5783 5785 5787 5787 5787 5788 5788 5787 5787 5787 5788 5790 5792 5793 5794 5795 5795 5796 5796 5796 5796 5796 5797 5798 5797 5797 5798 5799 5800 5801 5802 5802 5803 5804 5805 5806 5807 5808 5810 5812 5814 5815 5816 5817 5818 5820 5821 5823 5824 5826 5828 5829 5831 5832 5834 5835 5837 5838
5780 5783 5783 5783 5784 5784 5784 5783 5782 5782 5781 5781 5779 5779 5778 5778 5778 5778 5779 5779 5779 5779 5780 5782 5782 5782 5782 5783 5785 5784 5784 5785 5785 5786 5786 5786 5786 5787 5788 5790 5792 5793 5793 5793 5794 5794 5794 5794 5794 5795 5795 5795 5795 5796 5797 5798 5799 5800 5800 5801 5802 5803 5805 5806 5807 5808 5810 5811 5813 5814 5815 5816 5817 5818 5820 5821 5823 5825 5827 5828 5830 5832 5833 5835 5836
5778 5780 5780 5780 5780 5780 5781 5780 5780 5780 5780 5780 5780 5779 5778 5778 5777 5777 5777 5777 5776 5776 5776 5777 5778 5780 5780 5781 5781 5780 5780 5781 5781 5782 5783 5784 5785 5785 5786 5787 5789 5790 5790 5790 5791 5791 5792 5792 5792 5792 5792 5792 5793 5793 5795 5796 5797 5797 5798 5799 5800 5801 5803 5804 5805 5806 5807 5808 5811 5813 5813 5814 5815 5816 5817 5819 5820 5822 5824 5826 5828 5830 5831 5833 5834
5776 5776 5776 5777 5777 5777 5778 5778 5779 5779 5779 5779 5779 5778 5778 5778 5778 5778 5777 5776 5776 5774 5774 5773 5773 5775 5777 5778 5779 5778 5779 5779 5779 5780 5781 5782 5784 5783 5783 5784 5786 5787 5787 5787 5788 5788 5789 5789 5789 5790 5790 5790 5790 5791 5792 5794 5795 5795 5796 5796 5797 5798 5800 5802 5803 5804 5805 5806 5809 5811 5811 5812 5813 5814 5815 5816 5818 5819 5821 5823 5825 5827 5828 5830 5831
5774 5774 5774 5774 5774 5775 5775 5776 5777 5777 5777 5777 5778 5778 5777 5777 5777 5778 5777 5777 5777 5775 5774 5773 5772 5773 5774 5776 5777 5778 5779 5778 5778 5779 5779 5781 5782 5782 5781 5781 5783 5784 5784 5784 5785 5786 5786 5787 5788 5788 5788 5788 5788 5789 5790 5791 5792 5793 5794 5794 5795 5796 5798 5799 5801 5803 5804 5805 5806 5808 5809 5810 5811 5812 5813 5814 5816 5817 5819 5820 5822 5823 5825 5827 5828
5773 5772 5773 5772 5772 5773 5773 5774 5774 5775 5775 5776 5776 5776 5776 5777 5777 5777 5777 5776 5776 5776 5775 5773 5773 5773 5774 5774 5775 5776 5777 5776 5776 5777 5778 5780 5781 5780 5780 5780 5780 5781 5781 5781 5783 5784 5785 5786 5786 5787 5787 5786 5786 5787 5788 5789 5790 5791 5791 5792 5793 5794 5796 5797 5799 5801 5802 5803 5804 5806 5807 5808 5809 5810 5811 5812 5814 5815 5816 5818 5819 5821 5822 5824 5826
5770 5770 5770 5770 5770 5770 5770 5771 5772 5773 5773 5774 5774 5774 5775 5775 5775 5775 5775 5775 5775 5775 5774 5774 5773 5773 5773 5774 5774 5774 5775 5775 5775 5776 5777 5778 5779 5779 5779 5779 5779 5779 5780 5780 5781 5783 5784 5784 5785 5785 5785 5785 5785 5785 5786 5787 5788 5789 5789 5790 5791 5793 5794 5795 5797 5798 5799 5800 5802 5804 5805 5805 5807 5808 5808 5810 5811 5812 5814 5815 5816 5818 5820 5821 5823
5766 5767 5767 5768 5768 5768 5768 5769 5769 5770 5771 5771 5772 5772 5773 5773 5773 5773 5773 5773 5773 5773 5773 5773 5773 5772 5772 5773 5774 5773 5773 5774 5774 5775 5775 5776 5777 5778 5778 5778 5778 5778 5779 5780 5781 5782 5783 5783 5784 5784 5784 5784 5784 5784 5784 5785 5786 5787 5788 5788 5789 5791 5792 5793 5794 5795 5796 5797 5798 5800 5801 5803 5804 5805 5806 5807 5809 5810 5811 5812 5814 5815 5817 5818 5820
5763 5764 5765 5766 5766 5766 5766 5766 5767 5768 5769 5769 5770 5770 5770 5770 5770 5771 5771 5771 5771 5771 5771 5772 5771 5771 5771 5772 5772 5772 5772 5773 5773 5774 5774 5774 5775 5776 5777 5777 5777 5777 5777 5779 5780 5780 5781 5781 5782 5782 5782 5783 5783 5783 5783 5784 5785 5785 5785 5786 5787 5788 5789 5790 5791 5792 5793 5794 5795 5796 5798 5799 5801 5802 5804 5805 5806 5808 5809 5810 5811 5812 5814 5815 5817
5762 5763 5764 5764 5764 5763 5763 5764 5765 5766 5767 5767 5768 5768 5768 5768 5768 5768 5769 5769 5769 5769 5769 5769 5769 5769 5770 5770 5770 5771 5771 5772 5772 5773 5773 5772 5773 5775 5775 5776 5776 5776 5776 5777 5779 5778 5779 5779 5779 5780 5780 5780 5781 5781 5781 5782 5783 5783 5783 5784 5785 5785 5787 5788 5789 5789 5790 5791 5791 5792 5793 5795 5797 5800 5802 5803 5803 5805 5806 5807 5808 5809 5810 5812 5813
5760 5761 5761 5761 5761 5760 5760 5761 5762 5763 5764 5765 5766 5766 5766 5766 5766 5766 5766 5766 5767 5767 5767 5767 5767 5767 5768 5768 5768 5769 5769 5770 5770 5771 5771 5770 5771 5772 5773 5774 5774 5774 5774 5775 5776 5776 5776 5777 5777 5777 5778 5778 5778 5779 5779 5779 5780 5781 5781 5782 5782 5783 5784 5785 5786 5786 5787 5787 5788 5788 5789 5790 5793 5796 5797 5798 5799 5801 5802 5803 5804 5806 5807 5808 5810
5758 5759 5759 5758 5758 5757 5758 5759 5760 5761 5762 5762 5763 5764 5765 5764 5764 5764 5764 5764 5764 5764 5764 5764 5765 5765 5765 5766 5766 5767 5767 5768 5768 5768 5769 5769 5768 5769 5771 5771 5771 5772 5772 5773 5774 5774 5774 5775 5775 5775 5775 5776 5776 5776 5776 5777 5778 5779 5780 5780 5780 5780 5781 5782 5782 5783 5784 5784 5784 5784 5784 5786 5788 5791 5793 5794 5796 5797 5798 5800 5802 5803 5803 5805 5806
5755 5756 5756 5755 5754 5754 5755 5757 5758 5759 5759 5760 5761 5762 5762 5762 5761 5761 5762 5762 5762 5762 5762 5762 5762 5762 5763 5764 5764 5764 5765 5765 5766 5766 5766 5766 5766 5767 5768 5768 5769 5769 5770 5770 5771 5772 5772 5773 5773 5773 5773 5773 5773 5774 5774 5775 5775 5776 5777 5777 5777 5777 5778 5778 5779 5780 5780 5781 5781 5781 5781 5782 5784 5786 5788 5790 5791 5794 5795 5797 5799 5800 5801 5802 5804
5753 5753 5752 5752 5752 5751 5752 5754 5755 5756 5757 5758 5758 5759 5759 5760 5759 5759 5759 5759 5760 5760 5760 5760 5760 5760 5760 5761 5761 5762 5762 5763 5763 5764 5764 5764 5764 5764 5765 5766 5766 5766 5767 5767 5768 5769 5770 5771 5771 5771 5771 5770 5770 5771 5772 5772 5773 5773 5773 5774 5775 5775 5775 5775 5776 5776 5777 5777 5777 5778 5778 5779 5780 5782 5784 5786 5787 5790 5792 5793 5795 5797 5799 5800 5801
5751 5750 5749 5749 5749 5749 5749 5751 5752 5753 5754 5755 5755 5756 5757 5757 5757 5756 5757 5757 5757 5757 5758 5757 5757 5758 5758 5758 5759 5759 5760 5760 5760 5761 5761 5761 5762 5762 5762 5763 5763 5764 5765 5765 5765 5766 5768 5769 5769 5769 5769 5768 5768 5769 5769 5769 5769 5769 5770 5770 5771 5772 5772 5773 5774 5774 5774 5774 5773 5774 5775 5776 5777 5778 5780 5782 5784 5785 5787 5790 5792 5794 5795 5796 5797
5749 5748 5747 5745 5745 5746 5747 5748 5749 5749 5751 5751 5752 5753 5754 5754 5754 5753 5754 5754 5755 5755 5755 5755 5755 5755 5756 5756 5756 5757 5757 5757 5757 5758 5758 5758 5759 5759 5760 5760 5761 5761 5762 5762 5763 5763 5764 5765 5766 5766 5766 5766 5766 5766 5766 5767 5766 5766 5766 5767 5768 5769 5769 5770 5771 5771 5771 5771 5770 5771 5771 5772 5774 5775 5776 5777 5779 5781 5783 5785 5788 5790 5791 5792 5794
5747 5745 5746 5744 5742 5743 5744 5746 5746 5746 5747 5748 5749 5750 5750 5751 5751 5751 5751 5751 5752 5752 5752 5753 5753 5753 5753 5754 5754 5754 5754 5755 5755 5755 5755 5755 5756 5756 5757 5757 5758 5759 5759 5760 5760 5761 5761 5762 5762 5762 5763 5764 5763 5764 5764 5764 5764 5763 5763 5764 5765 5765 5766 5767 5768 5768 5768 5768 5768 5768 5769 5769 5770 5771 5772 5773 5775 5776 5778 5780 5783 5785 5787 5788 5791
5744 5743 5743 5741 5739 5739 5741 5743 5744 5744 5744 5745 5746 5747 5747 5748 5748 5749 5748 5748 5749 5749 5750 5750 5751 5751 5751 5751 5752 5752 5752 5752 5752 5752 5752 5753 5753 5753 5754 5755 5755 5756 5756 5757 5758 5758 5759 5759 5759 5760 5760 5761 5761 5761 5761 5761 5761 5761 5761 5761 5761 5762 5764 5764 5765 5765 5766 5766 5766 5766 5767 5768 5768 5768 5769 5770 5772 5773 5774 5775 5778 5780 5782 5784 5786
5742 5742 5742 5739 5736 5737 5739 5740 5741 5741 5741 5742 5743 5744 5744 5744 5745 5746 5746 5746 5746 5746 5747 5747 5748 5748 5748 5749 5749 5749 5750 5750 5750 5750 5750 5750 5750 5750 5751 5751 5752 5752 5753 5754 5755 5755 5756 5756 5756 5757 5757 5758 5758 5758 5758 5758 5758 5758 5758 5759 5759 5760 5761 5761 5762 5762 5763 5764 5764 5765 5765 5766 5766 5766 5766 5767 5768 5769 5770 5771 5773 5774 5777 5779 5780
5738 5738 5740 5739 5735 5735 5736 5737 5738 5738 5738 5739 5740 5741 5742 5741 5741 5743 5743 5743 5743 5744 5744 5745 5745 5745 5745 5746 5746 5746 5747 5747 5747 5747 5747 5747 5747 5747 5747 5748 5748 5749 5749 5750 5751 5752 5752 5753 5753 5754 5754 5755 5755 5755 5756 5756 5756 5756 5756 5756 5756 5757 5758 5758 5759 5759 5760 5761 5762 5763 5763 5764 5764 5763 5764 5764 5765 5766 5766 5767 5769 5770 5772 5774 5775
5734 5735 5737 5738 5736 5733 5733 5734 5735 5735 5736 5736 5737 5738 5738 5738 5738 5739 5740 5741 5741 5741 5741 5742 5742 5742 5743 5743 5743 5743 5744 5744 5744 5745 5745 5745 5745 5745 5745 5745 5745 5746 5746 5747 5748 5749 5749 5750 5751 5751 5751 5752 5752 5753 5753 5753 5753 5753 5753 5753 5754 5754 5755 5755 5756 5756 5757 5758 5759 5760 5761 5761 5761 5760 5761 5761 5762 5762 5762 5763 5764 5766 5767 5769 5770